Regional Weather Roundup
Issued by NWS

Home | Current Version | Previous Version | Text Only | Print | Product List | Glossary Off
Versions: 1 2 3 4 5 6 7 8 9 10 11 12 13 14 15 16 17 18 19 20 21 22 23 24 25 26 27 28 29 30 31 32 33 34 35 36 37 38 39 40 41 42 43 44 45 46 47 48 49 50

000
ASUS43 KLSX 210107
RWRMO

WEATHER SUMMARY FOR MISSOURI
NATIONAL WEATHER SERVICE SPRINGFIELD MO
800 PM CDT MON APR 20 2015

NOTE: "FAIR" INDICATES FEW OR NO CLOUDS BELOW 12,000 FEET WITH NO
       SIGNIFICANT WEATHER AND/OR OBSTRUCTIONS TO VISIBILITY.
       CURRENT SKY AND/OR WEATHER CONDITIONS ARE NOT AVAILABLE FOR
       CHILLICOTHE AND FARMINGTON.

MOZ001>031-035>038-043-044-053-054-210200-
...NORTHERN AND WESTERN MISSOURI...

CITY           SKY/WX    TMP DP  RH WIND       PRES   REMARKS
KANSAS CTY INT PTCLDY    53  26  35 W8        29.83S
KANSAS C DTWN  CLEAR     56  24  29 W7        29.83S
LEE`S SUMMIT   PTCLDY    54  24  31 W7        29.84S
ST JOSEPH      MOCLDY    53  26  35 W12       29.81S
CHILLICOTHE      N/A     55  24  30 VRB5G17   29.80R
KIRKSVILLE     PTCLDY    51  25  36 W7        29.76R

$$
MOZ066>068-077>081-088>096-101>105-210200-
...SOUTHWEST MISSOURI...

CITY           SKY/WX    TMP DP  RH WIND       PRES   REMARKS
SPRINGFIELD    CLEAR     53  27  36 W8        29.90R
JOPLIN         CLEAR     53  34  48 W6        29.92S

$$
MOZ032>034-039>042-045>050-055>058-069>072-210200-
...CENTRAL MISSOURI...

CITY           SKY/WX    TMP DP  RH WIND       PRES   REMARKS
COLUMBIA       CLEAR     52  25  35 W9        29.83R
JEFFERSON CITY CLEAR     53  26  35 W10       29.84R
ROLLA          MOCLDY    50  28  42 W8        29.83R
SEDALIA        CLEAR     52  29  41 W8        29.85S
WHITEMAN AFB   PTCLDY    53  26  34 W6        29.84R
WARRENSBURG    PTCLDY    52  27  37 W8        29.85R
OSAGE BEACH    CLEAR     54  19  26 W8        29.86R

$$
MOZ051-052-059>065-210200-
...EAST CENTRAL MISSOURI...

CITY           SKY/WX    TMP DP  RH WIND       PRES   REMARKS
ST LOUIS INTL  PTCLDY    56  29  35 W16G22    29.81R
SPIRIT OF STL  PTCLDY    52  30  43 W7        29.80R
ST CHARLES     MOCLDY    52  33  48 W10       29.79R

$$
MOZ072>076-082>087-097>100-106>115-210200-
...SOUTH CENTRAL AND SOUTHEAST MISSOURI...

CITY           SKY/WX    TMP DP  RH WIND       PRES   REMARKS
CAPE GIRARDEAU PTCLDY    56  36  47 NW8       29.83R
FARMINGTON     PTCLDY    52  28  40 NW6       29.87R
POPLAR BLUFF   CLEAR     58  29  33 W8        29.84R
WEST PLAINS    PTCLDY    53  27  36 W9        29.89R

$$


USA.gov is the U.S. government's official web portal to all federal, state and local government web resources and services.